| time (UTC) | temp F | wind direction | speed MPH | gust MPH | rain 1hr in | rain 24hr in | rain mn in | humidity % | barometer mb |
| 20260504204541 | 72 | 198 | 5.0 | 11.0 | 0.00 | 0.00 | 0.00 | 44 | 1012.7 |
| 20260504203142 | 73 | 212 | 3.0 | 8.0 | 0.00 | 0.00 | 0.00 | 44 | 1012.4 |
| 20260504201539 | 75 | 196 | 3.0 | 10.0 | 0.00 | 0.00 | 0.00 | 37 | 1012.7 |
| 20260504200032 | 75 | 179 | 3.0 | 6.0 | 0.00 | 0.00 | 0.00 | 37 | 1012.9 |
| 20260504194531 | 75 | 220 | 4.0 | 7.0 | 0.00 | 0.00 | 0.00 | 37 | 1013.0 |
| 20260504193026 | 74 | 217 | 1.0 | 9.0 | 0.00 | 0.00 | 0.00 | 38 | 1013.3 |
| 20260504191525 | 74 | 166 | 2.0 | 10.0 | 0.00 | 0.00 | 0.00 | 39 | 1013.5 |
| 20260504190020 | 73 | 206 | 1.0 | 6.0 | 0.00 | 0.00 | 0.00 | 41 | 1013.7 |
| 20260504184519 | 73 | 160 | 3.0 | 7.0 | 0.00 | 0.00 | 0.00 | 42 | 1014.0 |
| 20260504183014 | 73 | 254 | 1.0 | 6.0 | 0.00 | 0.00 | 0.00 | 40 | 1014.1 |
| 20260504181515 | 73 | 181 | 2.0 | 6.0 | 0.00 | 0.00 | 0.00 | 41 | 1014.4 |
| 20260504180009 | 72 | 231 | 3.0 | 8.0 | 0.00 | 0.00 | 0.00 | 38 | 1014.4 |
| 20260504174505 | 72 | 205 | 2.0 | 12.0 | 0.00 | 0.00 | 0.00 | 37 | 1014.5 |
| 20260504173002 | 72 | 356 | 2.0 | 10.0 | 0.00 | 0.00 | 0.00 | 38 | 1014.8 |
| 20260504171610 | 71 | 212 | 3.0 | 7.0 | 0.00 | 0.00 | 0.00 | 39 | 1015.0 |
| 20260504081547 | 53 | 203 | 2.0 | 5.0 | 0.00 | 0.00 | 0.00 | 62 | 1017.7 |
| 20260504050008 | 48 | 307 | 0.0 | 0.0 | 0.00 | 0.00 | 0.00 | 64 | 1018.0 |
| 20260504044505 | 48 | 307 | 0.0 | 0.0 | 0.00 | 0.00 | 0.00 | 64 | 1018.0 |
| 20260504043003 | 47 | 307 | 0.0 | 0.0 | 0.00 | 0.00 | 0.00 | 66 | 1018.1 |
| 20260504041557 | 48 | 307 | 0.0 | 0.0 | 0.00 | 0.00 | 0.00 | 63 | 1018.1 |
| 20260504040054 | 48 | 307 | 0.0 | 0.0 | 0.00 | 0.00 | 0.00 | 63 | 1018.1 |
| 20260504034552 | 46 | 307 | 0.0 | 0.0 | 0.00 | 0.00 | 0.00 | 66 | 1017.9 |
| 20260504033057 | 44 | 307 | 0.0 | 0.0 | 0.00 | 0.00 | 0.00 | 72 | 1017.9 |
| 20260504031559 | 44 | 307 | 0.0 | 0.0 | 0.00 | 0.00 | 0.00 | 76 | 1017.7 |
| 20260504030049 | 44 | 307 | 0.0 | 0.0 | 0.00 | 0.00 | 0.00 | 78 | 1017.6 |
| 20260504024556 | 44 | 307 | 0.0 | 0.0 | 0.00 | 0.00 | 0.00 | 75 | 1017.6 |
| 20260504023045 | 45 | 307 | 0.0 | 0.0 | 0.00 | 0.00 | 0.00 | 73 | 1017.6 |
| 20260504021550 | 45 | 307 | 0.0 | 0.0 | 0.00 | 0.00 | 0.00 | 73 | 1017.6 |
| 20260504020047 | 46 | 307 | 0.0 | 0.0 | 0.00 | 0.00 | 0.00 | 70 | 1017.5 |
| 20260504014538 | 47 | 307 | 0.0 | 0.0 | 0.00 | 0.00 | 0.00 | 70 | 1017.4 |
| 20260504013045 | 48 | 307 | 0.0 | 0.0 | 0.00 | 0.00 | 0.00 | 68 | 1017.3 |
| 20260504011534 | 48 | 307 | 0.0 | 0.0 | 0.00 | 0.00 | 0.00 | 66 | 1017.2 |
| 20260504010033 | 50 | 307 | 0.0 | 0.0 | 0.00 | 0.00 | 0.00 | 64 | 1017.2 |
| 20260504004541 | 51 | 307 | 0.0 | 0.0 | 0.00 | 0.00 | 0.00 | 62 | 1017.3 |
| 20260504003030 | 53 | 307 | 0.0 | 0.0 | 0.00 | 0.00 | 0.00 | 58 | 1017.0 |
| 20260504001528 | 54 | 307 | 0.0 | 0.0 | 0.00 | 0.00 | 0.00 | 53 | 1017.0 |
| 20260504000027 | 57 | 307 | 0.0 | 0.0 | 0.00 | 0.00 | 0.00 | 47 | 1016.8 |
| 20260503234525 | 59 | 307 | 0.0 | 0.0 | 0.00 | 0.00 | 0.00 | 38 | 1016.6 |
| 20260503233029 | 61 | 307 | 0.0 | 1.0 | 0.00 | 0.00 | 0.00 | 36 | 1016.6 |
| 20260503231519 | 62 | 307 | 0.0 | 7.0 | 0.00 | 0.00 | 0.00 | 37 | 1016.4 |
| 20260503230017 | 63 | 312 | 0.0 | 4.0 | 0.00 | 0.00 | 0.00 | 35 | 1016.3 |
| 20260503224515 | 63 | 303 | 5.0 | 12.0 | 0.00 | 0.00 | 0.00 | 32 | 1016.4 |
| 20260503223014 | 62 | 304 | 2.0 | 5.0 | 0.00 | 0.00 | 0.00 | 33 | 1016.5 |
| 20260503221511 | 62 | 344 | 2.0 | 11.0 | 0.00 | 0.00 | 0.00 | 33 | 1016.4 |
| 20260503220009 | 62 | 304 | 2.0 | 8.0 | 0.00 | 0.00 | 0.00 | 34 | 1016.5 |
| 20260503214507 | 63 | 4 | 3.0 | 6.0 | 0.00 | 0.00 | 0.00 | 32 | 1016.5 |
| 20260503213007 | 62 | 316 | 2.0 | 13.0 | 0.00 | 0.00 | 0.00 | 35 | 1016.5 |
| 20260503211606 | 62 | 252 | 4.0 | 13.0 | 0.00 | 0.00 | 0.00 | 34 | 1016.5 |
| 20260503210058 | 61 | 281 | 3.0 | 9.0 | 0.00 | 0.00 | 0.00 | 35 | 1016.6 |
| 20260503204556 | 61 | 9 | 4.0 | 10.0 | 0.00 | 0.00 | 0.00 | 35 | 1016.6 |